Theta_e
331 330 329 328 327 327 325 323 324 323 321 320 319 318 319 320 321 320 320 321 323 324 325 324 323 322 322 321 322 322 321 320 319 319 319 320 319 319 320 319 318 319
329 328 328 327 326 325 323 323 322 321 320 319 317 317 319 320 320 320 320 321 322 322 323 322 320 320 320 320 320 321 319 317 317 319 318 317 317 318 319 318 319 319
326 326 324 324 324 323 323 322 320 319 318 319 317 318 320 320 319 319 319 320 321 320 320 319 319 319 319 319 319 319 318 315 316 318 317 317 318 318 318 318 319 319
325 325 323 322 323 322 321 320 319 318 318 318 318 319 320 319 319 319 319 319 320 319 318 319 319 319 318 318 318 318 317 315 316 317 316 317 318 318 317 318 318 318
324 324 324 323 322 321 320 319 319 318 317 317 319 320 319 319 319 319 318 318 319 319 319 319 319 319 318 318 318 317 316 315 316 316 316 317 317 317 317 317 318 318
324 324 323 322 320 319 319 319 319 319 317 317 319 319 318 318 318 318 318 318 318 318 318 318 318 319 319 318 318 317 316 316 315 316 316 316 316 316 317 317 317 317
323 323 322 320 318 317 318 318 319 319 317 318 319 318 318 318 318 318 317 318 319 318 318 318 318 318 318 318 317 317 317 316 316 316 316 316 316 316 316 316 316 316
322 322 321 320 318 318 318 318 318 318 318 318 318 318 317 318 318 318 318 318 319 319 318 318 318 318 317 317 317 317 317 317 316 316 316 316 316 315 315 316 315 315
321 320 320 320 320 319 318 318 318 319 319 318 318 317 317 317 317 317 318 318 319 319 319 319 319 318 317 317 317 317 316 316 316 316 316 315 315 315 315 315 314 314
320 320 320 319 319 319 319 319 319 319 319 318 318 317 317 317 317 317 317 317 318 319 319 319 319 319 318 317 317 317 316 316 316 315 315 315 314 313 314 314 314 313
320 320 320 319 319 319 319 318 318 318 318 318 318 317 317 316 316 316 317 317 318 318 319 318 318 318 319 318 317 317 316 316 315 315 315 315 314 313 313 313 313 314
319 319 319 319 318 319 319 318 318 318 317 318 318 317 317 317 317 317 317 317 317 318 318 318 317 317 318 319 318 317 316 316 316 315 314 314 313 313 313 313 313 314
319 319 320 319 318 318 319 318 318 317 317 317 317 318 317 317 317 317 317 317 317 318 318 318 317 316 316 317 318 319 318 318 318 315 314 314 313 312 313 313 312 313
319 318 319 319 318 318 318 317 317 317 318 317 318 319 318 318 318 319 319 318 317 318 318 318 317 315 314 316 317 318 319 319 319 316 314 314 313 312 313 312 312 314
319 318 319 318 318 318 317 317 317 318 318 318 319 319 319 320 321 321 320 319 319 319 318 317 317 316 314 314 315 317 317 319 320 317 315 315 314 313 313 312 313 314
319 319 319 319 319 318 318 318 318 318 319 319 319 320 320 321 321 322 322 321 320 320 319 318 317 315 315 314 315 316 316 318 320 318 314 314 314 313 313 312 313 314
319 319 319 319 319 318 318 318 318 318 319 319 319 321 321 322 322 322 322 321 321 321 320 319 317 315 314 314 315 316 316 317 320 318 315 314 314 313 313 312 312 313
320 319 319 319 319 319 318 318 318 318 319 319 320 321 322 322 322 322 322 322 322 321 321 321 319 316 314 314 314 316 316 318 319 318 315 315 314 313 313 312 312 313
320 320 320 319 319 319 319 319 319 319 319 320 321 321 321 322 322 322 322 322 321 321 320 321 320 318 315 314 314 315 317 318 319 318 316 315 314 313 313 313 312 313
321 321 320 319 319 319 320 320 319 320 320 321 321 322 322 322 322 321 321 321 321 321 320 320 321 319 316 315 314 315 316 318 318 318 316 315 314 313 314 314 313 313
322 322 320 320 320 320 320 320 320 320 321 322 322 322 322 322 322 321 322 321 321 321 321 321 321 319 318 316 315 314 316 318 319 319 317 316 315 314 314 315 314 314
323 322 321 321 321 321 320 321 321 322 322 323 323 322 322 322 322 322 322 321 321 321 321 321 321 320 319 317 315 314 315 319 320 319 318 317 315 315 315 315 315 313
323 322 322 322 322 322 321 321 322 323 323 323 323 322 322 322 322 322 321 321 321 321 321 321 321 321 320 318 316 314 314 318 320 319 318 318 316 315 316 315 314 312
323 322 322 322 323 322 321 321 322 323 323 323 323 323 323 322 322 321 321 321 321 321 321 321 321 321 321 319 317 315 314 316 319 319 318 318 317 316 315 315 314 310
323 322 322 322 322 322 321 321 322 323 323 323 323 323 323 322 322 322 321 321 321 321 321 321 321 321 321 320 318 316 314 315 318 319 318 318 318 316 315 315 314 311
324 322 322 322 321 321 321 321 322 323 323 323 323 323 323 323 322 322 322 322 321 321 321 321 320 320 321 320 318 317 316 315 316 319 319 318 318 317 315 315 315 313
Wind_Speed
10 9 10 9 9 10 10 10 9 10 10 10 11 10 9 9 10 11 12 13 14 13 14 15 17 17 16 17 17 15 16 18 17 16 17 18 17 16 16 17 16 16
9 8 9 10 10 10 10 10 9 10 10 10 11 9 8 9 10 12 13 12 12 14 16 16 17 18 17 17 17 15 17 20 18 15 16 17 16 15 15 16 16 15
10 10 10 11 11 10 10 10 10 11 10 10 11 9 9 9 9 11 12 12 13 14 16 16 16 17 17 17 18 15 17 20 19 16 16 16 15 15 15 15 16 16
11 11 11 10 11 11 11 10 10 10 10 10 10 9 10 11 11 11 12 14 15 15 15 16 16 17 18 18 18 16 15 18 18 16 16 16 16 15 15 16 16 17
11 11 10 10 10 11 11 10 10 10 11 10 8 9 11 12 12 13 13 15 15 14 15 15 15 15 16 17 18 16 14 15 17 16 15 17 16 15 15 16 16 17
11 11 10 10 10 11 11 10 10 10 12 11 9 10 12 12 12 12 12 14 14 14 15 15 15 14 13 15 17 17 14 14 15 15 14 15 16 16 15 15 16 17
11 11 11 10 11 12 11 12 11 11 12 11 11 12 12 12 12 12 12 13 14 14 15 15 15 14 12 12 14 16 14 13 15 15 14 14 15 16 15 15 16 16
11 11 10 10 11 11 12 13 13 13 12 11 11 12 12 11 10 11 12 13 14 14 14 14 15 16 15 12 14 15 14 14 14 14 14 14 14 15 15 14 15 16
11 11 11 11 11 11 12 13 13 13 13 12 10 10 11 11 11 12 13 14 14 14 14 14 14 15 16 15 16 17 15 13 14 14 14 14 14 14 15 14 15 16
11 11 12 11 11 11 11 12 12 12 12 12 10 10 10 9 10 12 12 12 13 13 13 14 14 13 14 15 15 15 14 13 14 13 12 12 11 12 14 14 12 14
12 11 12 11 10 10 9 10 11 9 10 11 10 10 10 9 10 12 12 12 13 13 14 14 14 13 13 14 14 13 13 14 13 14 14 12 13 15 15 14 12 13
12 12 11 10 10 10 9 9 9 8 9 9 7 8 9 9 10 11 10 11 12 12 12 13 14 13 13 13 13 11 12 14 14 17 17 14 14 16 13 13 14 14
11 11 10 9 9 9 9 9 8 8 9 8 7 8 8 8 9 9 9 9 9 9 10 10 12 14 13 12 11 11 12 14 15 17 18 16 15 14 13 14 15 12
10 9 9 8 8 8 9 8 7 7 8 7 6 8 8 8 8 8 7 7 6 7 10 10 10 13 15 13 11 12 13 14 14 14 15 16 17 15 16 17 16 13
10 11 9 7 7 8 8 7 6 6 6 6 5 5 6 7 7 9 9 7 6 6 8 10 8 11 15 13 11 12 13 13 13 13 13 16 17 16 16 16 16 15
10 12 10 7 6 7 6 6 6 5 4 4 4 3 4 6 7 9 11 10 9 7 7 8 7 9 13 11 10 11 12 12 13 13 14 16 17 17 16 15 15 16
8 10 10 8 6 5 5 5 5 4 2 2 3 4 4 5 6 8 9 9 9 9 9 6 6 9 12 10 9 9 10 12 14 13 14 15 15 15 14 14 14 15
7 8 9 8 5 5 5 3 3 2 1 0 2 4 3 3 4 4 5 6 6 7 9 5 2 8 12 10 9 8 8 11 12 12 12 12 12 13 13 13 15 15
8 7 7 7 6 5 4 3 3 2 2 2 0 2 1 3 4 4 3 5 5 6 8 5 1 5 11 10 9 8 7 9 11 10 9 9 9 10 11 12 14 14
8 7 7 7 7 6 4 3 3 4 4 2 1 1 3 4 4 5 5 5 5 6 9 6 1 4 10 10 9 8 5 8 11 10 9 8 9 9 9 9 11 11
7 6 6 6 5 5 5 5 4 4 4 3 4 5 4 3 4 5 5 6 5 6 8 7 3 6 10 9 9 8 6 7 9 10 9 8 9 9 7 6 8 10
7 6 5 5 5 4 4 5 3 3 4 5 6 7 6 4 5 5 5 6 6 5 7 7 6 7 9 9 9 8 7 7 7 9 10 8 8 8 6 5 6 8
7 6 6 5 4 4 4 4 3 3 4 5 6 7 7 6 7 5 4 5 6 6 6 7 7 7 8 9 9 8 7 7 6 8 9 9 8 6 4 4 5 8
8 7 6 5 5 5 4 4 4 3 4 5 6 7 8 8 8 6 5 5 6 7 7 7 7 7 8 9 8 8 8 6 6 8 9 9 9 6 4 4 6 9
8 7 6 6 6 6 5 5 4 2 3 6 6 8 10 10 8 8 7 8 8 8 8 8 8 7 8 8 8 8 8 6 6 8 8 8 9 6 5 5 4 7
8 7 6 6 6 5 5 4 2 2 5 6 7 9 10 10 9 8 9 9 9 8 8 8 8 7 7 8 8 8 8 6 5 7 7 7 8 7 4 6 3 4
Wind_Direction
74 75 77 76 71 67 62 52 47 53 47 36 38 37 31 30 29 28 30 37 40 32 31 31 26 24 20 19 23 26 29 24 16 13 5 6 7 3 10 11 6 3
80 82 83 83 79 73 70 61 50 52 51 45 44 39 29 32 39 41 35 34 39 35 32 32 30 28 23 20 22 29 34 29 22 17 11 11 8 5 12 11 5 4
75 76 75 74 73 71 72 68 59 55 53 50 49 41 29 31 45 50 45 42 45 41 35 33 33 33 29 24 21 25 35 33 26 20 18 16 10 11 18 12 7 10
76 76 77 78 78 74 70 68 65 62 61 57 53 46 37 35 40 44 46 47 47 45 39 35 35 35 33 29 22 22 32 32 25 22 24 21 15 16 20 14 12 15
80 80 83 87 86 81 75 72 68 65 65 62 54 54 51 46 42 39 40 42 41 40 39 34 33 35 34 32 24 19 27 32 25 22 27 26 19 18 22 19 15 17
83 81 80 82 83 82 79 74 68 67 71 64 49 55 60 55 48 42 41 43 38 37 37 32 28 30 34 35 28 19 23 32 25 21 27 30 25 20 21 23 19 18
85 82 80 79 83 86 83 76 69 67 72 68 55 57 62 58 52 46 45 46 40 35 34 29 25 25 27 36 37 26 23 29 23 19 25 29 32 28 22 26 25 17
90 90 91 85 83 84 83 81 75 68 70 70 63 60 59 56 54 50 49 50 44 37 36 32 26 22 16 25 42 32 23 28 22 17 22 24 32 31 22 29 30 15
92 93 96 91 83 78 77 80 80 77 77 74 68 68 65 58 54 50 50 54 51 41 37 32 28 25 16 19 33 29 22 28 24 16 20 22 26 27 21 29 39 26
95 95 95 92 86 81 81 83 83 84 85 80 73 74 72 66 65 58 50 54 55 46 37 28 24 24 17 16 25 23 17 23 23 16 15 18 21 22 22 24 39 48
98 95 93 93 92 89 88 90 89 87 87 87 88 85 73 62 65 62 49 46 52 51 41 30 21 17 13 17 23 21 17 16 17 12 10 21 29 24 23 15 18 50
110 105 102 104 104 99 93 91 89 79 72 73 77 81 77 65 62 62 51 44 45 49 46 34 24 20 15 17 20 18 17 12 10 14 13 19 28 25 23 13 11 38
112 109 108 105 102 103 99 92 88 79 75 65 39 36 52 63 69 66 58 50 36 40 54 43 28 27 23 18 13 8 9 7 8 17 16 7 9 17 24 19 17 39
107 106 104 103 105 108 102 94 88 79 77 73 47 33 33 40 47 38 39 52 38 40 64 54 29 27 28 24 17 9 7 4 3 12 17 9 7 13 21 20 22 41
120 118 114 115 118 115 108 105 104 91 79 77 67 42 16 8 9 2 3 27 39 46 67 60 35 26 28 28 24 15 10 3 358 5 16 15 11 12 17 18 15 22
115 119 121 125 128 123 116 112 106 96 84 71 62 46 11 352 354 357 360 13 19 13 32 54 47 25 25 34 33 19 13 5 358 5 20 22 16 14 17 17 10 6
115 119 123 130 138 127 115 109 102 98 87 50 48 68 53 6 355 1 359 3 5 357 2 31 48 23 21 35 34 17 13 9 1 6 21 24 18 12 12 15 14 6
129 123 125 134 141 126 122 131 125 126 159 52 41 59 50 345 335 351 352 351 347 344 351 1 27 15 14 23 25 13 10 10 5 8 20 25 21 13 12 17 17 6
130 134 142 144 144 142 157 172 162 200 245 252 280 41 351 296 304 321 333 340 326 323 339 337 289 4 5 10 17 15 13 13 9 7 17 30 28 19 16 18 18 8
139 156 153 147 155 163 177 197 203 227 253 274 292 271 262 269 304 322 323 328 323 319 329 329 291 3 357 359 8 12 14 17 10 0 5 26 30 24 22 19 16 10
156 165 153 155 173 177 186 210 224 243 280 327 330 299 276 257 291 311 313 318 322 319 325 330 348 360 353 350 355 2 8 12 4 351 353 12 25 21 19 21 19 13
166 174 168 165 177 191 208 221 230 269 297 311 309 303 304 295 288 292 301 314 319 313 318 325 323 329 341 343 344 350 1 3 354 345 346 359 17 19 19 36 34 22
174 183 185 172 182 213 230 241 248 263 280 285 286 292 299 300 296 293 293 307 315 312 315 319 309 306 322 336 337 338 348 353 343 341 345 346 358 21 39 58 57 42
183 189 192 188 201 217 227 241 244 247 267 275 277 281 283 284 287 289 298 309 313 310 309 308 300 298 309 323 329 329 338 346 333 334 343 340 344 19 69 84 74 54
191 192 202 209 212 216 228 238 229 228 267 273 277 282 285 289 295 303 317 321 312 305 305 304 300 297 302 315 325 324 328 338 333 331 341 338 335 5 72 90 84 57
191 193 210 219 215 222 244 247 229 240 261 266 276 285 294 309 319 319 318 313 307 303 299 297 298 298 299 309 320 325 324 327 329 330 342 345 325 327 57 89 92 56